[[{"header":{"parameterUnit":"m.s-1","parameterCategory":1,"la1":30.2991,"la2":30.254,"lo1":-89.0895,"lo2":-89.0444,"dy":0.0017,"dx":0.0017,"nx":28,"ny":28,"refTime":"2023-08-30T09:00:00:Z","depth":0,"parameterNumber":2,"parameterNumberName":"U-component_of_WINDS"},"data":[0,0,0,0,0,0,0,0,0,0,0,0,0,0,0,0,0,0,0,0,0,0,0,0,0,0,0,0,0,0,0,0,0,0,0,0,0,0,0,0,0,0,0,0,0,0,0,0,0,0,0,0,0,0,0,0,0,0,-0.2608,-0.2607,0,-0.2525,-0.2524,-0.2523,-0.2486,-0.2486,-0.2486,-0.2486,-0.2398,-0.2396,-0.2393,0,0,0,0,0,0,0,0,0,0,0,0,0,-0.2732,-0.273,-0.2608,-0.2607,-0.2606,-0.2525,-0.2524,-0.2523,-0.2486,-0.2486,-0.2486,-0.2486,-0.2399,-0.2396,-0.2393,0,0,0,0,0,0,0,0,0,0,0,0,0,-0.2667,-0.2729,-0.2608,-0.2578,-0.2574,-0.2526,-0.2524,-0.2523,-0.2486,-0.2486,-0.2486,-0.2486,-0.24,-0.2396,-0.2392,-0.2367,0,0,-0.2381,-0.238,0,0,0,0,0,0,0,0,-0.267,-0.2662,-0.2583,-0.258,-0.2576,-0.2516,-0.2536,-0.247,-0.2486,-0.2519,-0.2486,-0.2486,-0.2437,-0.243,-0.2414,-0.2363,-0.2359,-0.2381,-0.2379,-0.2377,-0.2376,0,0,0,0,0,0,0,-0.2675,-0.2665,-0.2575,-0.2582,-0.2578,-0.2568,-0.2559,-0.2523,-0.2478,-0.2516,-0.2514,-0.2504,-0.2435,-0.2418,-0.2412,-0.2358,-0.2381,-0.2378,-0.2376,-0.2374,-0.2282,-0.2282,0,0,0,0,0,0,-0.2685,-0.2669,-0.2578,-0.2573,-0.2625,-0.2565,-0.2555,-0.2535,-0.2479,-0.247,-0.2504,-0.2503,-0.2424,-0.2416,-0.2409,-0.2376,-0.2377,-0.2374,-0.2372,-0.2283,-0.2282,-0.2282,0,0,0,0,0,0,-0.2688,-0.2677,-0.2581,-0.262,-0.2607,-0.2563,-0.2541,-0.2533,-0.2516,-0.2469,-0.2461,-0.2495,-0.2424,-0.2414,-0.2378,-0.2372,-0.2372,-0.2369,-0.2283,-0.2282,-0.2282,-0.2309,0,0,0,0,0,0,-0.2691,-0.2678,-0.2668,-0.262,-0.2606,-0.2553,-0.2541,-0.2532,-0.2511,-0.2508,-0.2459,-0.2451,-0.2423,-0.2384,-0.2374,-0.2367,-0.2366,-0.2283,-0.2283,-0.2282,-0.2309,-0.231,-0.2311,0,0,0,0,0,-0.2696,-0.2678,-0.2668,-0.2657,-0.2592,-0.2553,-0.2544,-0.2514,-0.251,-0.25,-0.247,-0.2452,-0.2374,-0.238,-0.237,-0.2361,-0.2283,-0.2283,-0.2282,-0.2308,-0.231,-0.2311,0,0,0,0,0,0,-0.2725,-0.2671,-0.2659,-0.2626,-0.2594,-0.2546,-0.2532,-0.2516,-0.2483,-0.2482,-0.2445,-0.2434,-0.2402,-0.2378,-0.2385,-0.2334,-0.2327,-0.2325,-0.2351,-0.2352,-0.2353,-0.2359,-0.2363,0,0,0,0,0,-0.2728,-0.2701,-0.2655,-0.263,-0.2615,-0.2577,-0.2558,-0.2538,-0.2503,-0.2489,-0.2456,-0.2422,-0.239,-0.237,-0.2337,-0.2305,-0.2294,-0.2294,-0.2295,-0.2296,-0.2294,-0.2276,-0.2276,-0.228,-0.228,-0.228,0,0,-0.2733,-0.27,-0.2685,-0.2635,-0.2608,-0.258,-0.2565,-0.2536,-0.2515,-0.2484,-0.2449,-0.2424,-0.2383,-0.235,-0.2333,-0.2329,-0.2291,-0.2296,-0.2297,-0.2294,-0.2276,-0.2276,-0.2275,-0.228,-0.228,-0.228,0,0,-0.2728,-0.27,-0.2677,-0.2651,-0.2611,-0.2586,-0.2581,-0.2535,-0.2518,-0.2483,-0.2459,-0.2433,-0.2378,-0.2351,-0.233,-0.2317,-0.23,-0.2307,-0.2313,-0.2296,-0.2296,-0.2295,-0.2291,-0.229,-0.2306,-0.2306,-0.2306,0,-0.2738,-0.2697,-0.2667,-0.264,-0.2618,-0.2591,-0.2567,-0.2542,-0.2494,-0.2479,-0.2475,-0.2408,-0.2378,-0.2338,-0.2336,-0.2319,-0.2312,-0.2312,-0.2298,-0.2298,-0.2297,-0.2292,-0.2291,-0.2307,-0.2307,-0.2307,-0.2307,0,-0.2712,-0.2684,-0.267,-0.2625,-0.2602,-0.2577,-0.2543,-0.2523,-0.2505,-0.2481,-0.2445,-0.241,-0.2371,-0.236,-0.2341,-0.2317,-0.2316,-0.2306,-0.2298,-0.2298,-0.2293,-0.2291,-0.2309,-0.2308,-0.2308,-0.2308,0,0,-0.2722,-0.2663,-0.2658,-0.2638,-0.2593,-0.257,-0.2543,-0.2506,-0.2491,-0.2458,-0.2435,-0.2391,-0.2382,-0.2358,-0.2336,-0.2321,-0.2314,-0.2313,-0.2311,-0.2315,-0.2287,-0.2295,-0.2293,-0.2303,-0.2303,-0.2302,-0.229,0,-0.271,-0.2663,-0.2636,-0.2599,-0.2573,-0.2547,-0.2524,-0.2494,-0.2471,-0.2444,-0.2418,-0.2388,-0.2377,-0.2363,-0.2348,-0.2319,-0.2308,-0.2319,-0.2281,-0.228,-0.2292,-0.2291,-0.2299,-0.2289,-0.2288,-0.2288,-0.2288,0,-0.2691,-0.2661,-0.2622,-0.2582,-0.2569,-0.2549,-0.2514,-0.249,-0.2455,-0.2439,-0.2414,-0.2393,-0.2364,-0.236,-0.2319,-0.2327,-0.231,-0.2294,-0.2293,-0.2287,-0.2283,-0.2286,-0.2285,-0.2284,-0.2284,-0.2285,-0.2285,0,-0.2702,-0.2652,-0.2623,-0.2606,-0.2558,-0.2545,-0.2524,-0.2489,-0.247,-0.2439,-0.2425,-0.2391,-0.2372,-0.2346,-0.2316,-0.2316,-0.2279,-0.2272,-0.2265,-0.2266,-0.2257,-0.2258,-0.2254,-0.2247,-0.2247,-0.2247,-0.2247,0,-0.2692,-0.2669,-0.2627,-0.2609,-0.2583,-0.2553,-0.2528,-0.2505,-0.2475,-0.2451,-0.2427,-0.2405,-0.2368,-0.2341,-0.2318,-0.2289,-0.228,-0.2266,-0.226,-0.2268,-0.227,-0.2256,-0.2256,-0.2246,-0.2247,-0.2247,-0.2247,0,-0.27,-0.2671,-0.2637,-0.2595,-0.2584,-0.2567,-0.2531,-0.2512,-0.2488,-0.2459,-0.2451,-0.2413,-0.2381,-0.235,-0.2306,-0.229,-0.2261,-0.2253,-0.2274,-0.227,-0.2265,-0.2266,-0.2251,-0.2248,-0.2243,-0.2244,-0.2244,0,-0.2695,-0.2678,-0.2635,-0.2618,-0.2598,-0.2571,-0.2552,-0.2521,-0.2501,-0.2462,-0.2448,-0.2415,-0.2387,-0.2337,-0.2305,-0.2272,-0.2263,-0.226,-0.2258,-0.2267,-0.2263,-0.2265,-0.2263,-0.2261,-0.2261,-0.2262,-0.2262,0,-0.2691,-0.2678,-0.2651,-0.2619,-0.2597,-0.257,-0.2542,-0.253,-0.2494,-0.2473,-0.2441,-0.2419,-0.2376,-0.2344,-0.2307,-0.2285,-0.2267,-0.2263,-0.226,-0.2268,-0.228,-0.2274,-0.2277,-0.2263,-0.2263,-0.2263,-0.2263,-0.2263,-0.2692,-0.2676,-0.2643,-0.2614,-0.2591,-0.2566,-0.2547,-0.2522,-0.2495,-0.2459,-0.2442,-0.241,-0.2377,-0.2327,-0.2305,-0.2279,-0.2275,-0.227,-0.2268,-0.2267,-0.227,-0.2285,-0.2273,-0.2273,-0.2272,-0.2272,-0.2272,0,-0.2686,-0.2665,-0.2639,-0.2602,-0.2579,-0.2566,-0.2535,-0.2517,-0.249,-0.2461,-0.2434,-0.2398,-0.2367,-0.2334,-0.2301,-0.2287,-0.2278,-0.2279,-0.2279,-0.2275,-0.2276,-0.2282,-0.2287,-0.2287,-0.2287,-0.2287,-0.2287,-0.2287,-0.2681,-0.2653,-0.2636,-0.2596,-0.2575,-0.2544,-0.2528,-0.2505,-0.2482,-0.2443,-0.2418,-0.2397,-0.2367,-0.2331,-0.2302,-0.2293,-0.2282,-0.2286,-0.2274,-0.2276,-0.2275,-0.2274,-0.2279,-0.2284,-0.2284,-0.2276,-0.2276,-0.2276]},{"header":{"parameterUnit":"m.s-1","parameterCategory":1,"la1":30.2991,"la2":30.254,"lo1":-89.0895,"lo2":-89.0444,"dy":0.0017,"dx":0.0017,"nx":28,"ny":28,"refTime":"2023-08-30T09:00:00:Z","depth":0,"parameterNumber":3,"parameterNumberName":"V-component_of_WINDS"},"data":[0,0,0,0,0,0,0,0,0,0,0,0,0,0,0,0,0,0,0,0,0,0,0,0,0,0,0,0,0,0,0,0,0,0,0,0,0,0,0,0,0,0,0,0,0,0,0,0,0,0,0,0,0,0,0,0,0,0,2.2425,2.2424,0,2.2354,2.2353,2.2352,2.2305,2.2305,2.2305,2.2304,2.2229,2.2227,2.2226,0,0,0,0,0,0,0,0,0,0,0,0,0,2.2516,2.2515,2.2425,2.2424,2.2423,2.2354,2.2353,2.2352,2.2305,2.2305,2.2305,2.2304,2.223,2.2228,2.2226,0,0,0,0,0,0,0,0,0,0,0,0,0,2.2464,2.2514,2.2425,2.2392,2.2388,2.2354,2.2353,2.2352,2.2305,2.2305,2.2305,2.2304,2.223,2.2228,2.2225,2.2219,0,0,2.2217,2.2216,0,0,0,0,0,0,0,0,2.2467,2.2461,2.2398,2.2394,2.239,2.2338,2.2358,2.2307,2.2306,2.2337,2.2304,2.2304,2.2266,2.226,2.2248,2.2215,2.2212,2.2217,2.2216,2.2215,2.2214,0,0,0,0,0,0,0,2.2471,2.2463,2.2397,2.2397,2.2392,2.2379,2.2371,2.2348,2.2305,2.2334,2.233,2.2323,2.2263,2.225,2.2246,2.2211,2.2217,2.2215,2.2213,2.2212,2.2165,2.2166,0,0,0,0,0,0,2.248,2.2467,2.2399,2.2395,2.2428,2.2378,2.2369,2.2355,2.2305,2.2297,2.2323,2.2321,2.2255,2.2249,2.2243,2.2229,2.2215,2.2212,2.2211,2.2165,2.2165,2.2166,0,0,0,0,0,0,2.2482,2.2475,2.2402,2.243,2.242,2.2377,2.2362,2.2354,2.2341,2.2297,2.2288,2.2318,2.2254,2.2246,2.2224,2.2226,2.2211,2.2209,2.2165,2.2165,2.2166,2.2204,0,0,0,0,0,0,2.2485,2.2476,2.2474,2.243,2.2418,2.2386,2.2362,2.2353,2.2337,2.2333,2.229,2.2282,2.2253,2.2228,2.2222,2.2222,2.2207,2.2164,2.2165,2.2165,2.2202,2.2206,2.2209,0,0,0,0,0,2.2488,2.2487,2.2474,2.2466,2.2415,2.2387,2.238,2.2348,2.2337,2.2334,2.2305,2.2283,2.2227,2.2227,2.2219,2.2219,2.2164,2.2165,2.2165,2.2201,2.2205,2.2209,0,0,0,0,0,0,2.2532,2.2481,2.2466,2.2451,2.2423,2.2379,2.2374,2.2353,2.2328,2.2325,2.2286,2.2276,2.2257,2.2236,2.2236,2.2208,2.2193,2.2192,2.2223,2.2226,2.2229,2.2234,2.2204,0,0,0,0,0,2.254,2.2522,2.2478,2.2469,2.2456,2.2418,2.2404,2.2382,2.2351,2.2339,2.2309,2.2279,2.2254,2.2239,2.2214,2.2199,2.2187,2.2195,2.2198,2.2201,2.22,2.2187,2.2189,2.2168,2.2168,2.2168,0,0,2.2556,2.2526,2.2517,2.2477,2.2453,2.2434,2.2408,2.239,2.2374,2.2336,2.2313,2.229,2.2254,2.2234,2.2224,2.2216,2.2203,2.2202,2.2204,2.2202,2.2188,2.219,2.2192,2.2168,2.2168,2.2168,0,0,2.2575,2.2552,2.2541,2.2517,2.2481,2.2455,2.2453,2.2411,2.2393,2.237,2.234,2.2321,2.228,2.2255,2.2237,2.2244,2.2222,2.2237,2.2253,2.2241,2.2243,2.2244,2.2244,2.2245,2.2237,2.2237,2.2237,0,2.26,2.2571,2.2537,2.252,2.2502,2.2467,2.2454,2.2432,2.239,2.2378,2.2369,2.2315,2.2289,2.2262,2.2263,2.225,2.2244,2.2241,2.2245,2.2246,2.2247,2.2247,2.2248,2.2239,2.2238,2.2238,2.2238,0,2.2601,2.2581,2.2576,2.2536,2.2518,2.2503,2.2466,2.2451,2.2429,2.2404,2.2378,2.2345,2.2312,2.2304,2.2283,2.2273,2.2269,2.2253,2.2237,2.2252,2.2251,2.2251,2.2241,2.2241,2.224,2.224,0,0,2.2646,2.2587,2.2586,2.2566,2.2523,2.2506,2.2489,2.2456,2.2443,2.2415,2.2397,2.2363,2.2347,2.2327,2.2302,2.2292,2.2297,2.2277,2.2276,2.2281,2.2281,2.2293,2.2293,2.2283,2.2282,2.2282,2.2284,0,2.2657,2.2625,2.2593,2.2571,2.2551,2.2517,2.2501,2.2472,2.2447,2.2425,2.2396,2.2372,2.2355,2.2341,2.233,2.2299,2.2297,2.2299,2.2264,2.2263,2.2273,2.2293,2.2305,2.2308,2.2284,2.2283,2.2283,0,2.2666,2.2639,2.2616,2.2573,2.2563,2.255,2.2516,2.2496,2.2462,2.2444,2.242,2.2394,2.2371,2.2358,2.2325,2.2327,2.2311,2.2293,2.2293,2.2287,2.2274,2.2287,2.2309,2.2309,2.2283,2.2283,2.2283,0,2.2699,2.2657,2.2636,2.2621,2.2571,2.2562,2.2541,2.2506,2.2487,2.2458,2.2445,2.2413,2.2395,2.237,2.2335,2.233,2.2305,2.229,2.2288,2.2289,2.2284,2.2284,2.2302,2.2275,2.2275,2.2275,2.2275,0,2.2714,2.27,2.265,2.2638,2.262,2.2584,2.2567,2.2542,2.2511,2.2492,2.246,2.2442,2.2397,2.2373,2.2346,2.2321,2.2313,2.2297,2.2289,2.2299,2.2301,2.2287,2.2286,2.2275,2.2275,2.2275,2.2275,0,2.2747,2.2713,2.2688,2.2643,2.2631,2.2621,2.2581,2.2566,2.2539,2.2514,2.2506,2.2463,2.2433,2.2396,2.2354,2.2335,2.2313,2.2302,2.2325,2.232,2.232,2.232,2.2328,2.2327,2.2303,2.2303,2.2304,0,2.2758,2.2746,2.27,2.2685,2.2665,2.2641,2.2623,2.2585,2.2567,2.2525,2.2515,2.2483,2.2455,2.2408,2.2372,2.2339,2.2326,2.2331,2.2321,2.233,2.2324,2.2325,2.2323,2.2334,2.2334,2.2335,2.2335,0,2.278,2.2764,2.2739,2.2708,2.2687,2.266,2.2632,2.2621,2.2577,2.2558,2.2527,2.2506,2.2462,2.243,2.2392,2.2367,2.2343,2.2339,2.2336,2.2345,2.2358,2.235,2.2331,2.2339,2.2338,2.2338,2.2338,2.2338,2.2801,2.2789,2.2754,2.2727,2.2702,2.2676,2.2659,2.263,2.2604,2.2567,2.2546,2.2515,2.2478,2.2425,2.2401,2.2375,2.2367,2.2364,2.2362,2.2362,2.2364,2.2363,2.2368,2.2368,2.2368,2.2368,2.2368,0,2.2821,2.2796,2.2772,2.2733,2.2711,2.2692,2.2659,2.2641,2.2615,2.2584,2.2557,2.252,2.2488,2.2449,2.2414,2.24,2.2388,2.2392,2.2392,2.2386,2.2375,2.238,2.2402,2.2402,2.2402,2.2402,2.2402,2.2402,2.2828,2.2805,2.2785,2.2748,2.2724,2.2694,2.2677,2.2652,2.2626,2.2588,2.2561,2.2536,2.2501,2.2462,2.2431,2.242,2.2408,2.2415,2.24,2.239,2.2387,2.2384,2.2389,2.2413,2.2413,2.2414,2.2414,2.2414]}]]